STARLINK-36550, 67495

Orbit data source: Space-Track

STARLINK-36550, 67495 is a payload satellite owned by SpaceX/Seattle (US) in LEO that was launched on Sun, 18 Jan 2026 UTC via an FALCON 9 launch vehicle from the Air Force Eastern Test Range (AFETR). Payload-class satellites include a variety of spacecraft equipped with specific instruments for various scientific and technological missions. These include communications satellites like Starlink; space stations such as the ISS; scientific satellites like the Hubble; Earth observation satellites from companies like Planet Labs, Umbra, and HawkEye 360; GPS; miniature CubeSats for education and research; and military/defense satellites.

Loading next visibility...
Identifier
67495, 2026-012C
Orbit
LEO
Country
Flag of USUS
Related business
Manufacturer
SpaceX/Seattle
Mission
Operational Commercial Communications
Bus & Motor
STARLINK V2MO, Unknown motor
Mass
575 kg wet, ~530 kg dry
Launch date (UTC)
2026-01-18 (5 months ago)
Launch vehicle
FALCON 9
Launch site
Air Force Eastern Test Range (AFETR)
Object type
Payload
Rocket body
Debris
Shape & HBR
Box + 2 Pan, 17.7 m
Radar Cross Section
36.964 m², Large (>1 m²)

Expand to show TLE details & history
Last TLE update: 21 hours ago

TLE from 21 hours ago
0 STARLINK-36550
1 67495U 26012C   26170.98614423  .00011751  00000-0  43565-3 0  9996
2 67495  43.0033  96.9702 0001409 272.0531  88.0159 15.27594978 23400
Epoch: 2026-06-19T23:40Z
TLE epoch observation values (Epoch: 2026-06-19T23:40:02.861Z)
Latitude
-0.00004°
Longitude
-166.24902°
Altitude
482.747 km
Speed
7.626 km/s
True Right ascension
06h 27m 52s
True Declination
0° 00' 00"
Sunlit
Object was in daylight at epoch
Visualization orbit readout
Latitude
Unknown
Longitude
Unknown
Altitude
Unknown
Speed
Unknown
Apparent Right ascension
Unknown
Apparent Declination
Unknown
Sunlit
N/A
Visualization observer readout
Local Sidereal Time
07:19:48
Azimuth
Unknown
Elevation
Unknown
Doppler factor
Unknown
Orbital elements
Apogee altitude
485.916 km
Perigee altitude
483.982 km
Semi-major axis
6,863.086 km
Eccentricity
0.00014
Inclination
43.0033°
RAAN
96.9702°
Arg. of periapsis
272.0531°
True anomaly
88.03204°
Mean anomaly
88.0159°
Eccentric anomaly
88.02397°
Mean motion
3.81737 °/min
Orbital period
94.31 mins
BSTAR
0.00043565
Loading maneuver chart data...
Computing Atmospheric mass density...
Loading historical data...
Loading historical data...
Loading historical data...
Loading historical data...
Loading historical data...
Loading historical data...
Loading historical data...

Documentation

Showing up to 5 results
|